This demonstration page uses our WeatherBlox Daily Observations layout. Learn more.

Left ArrowRight Arrow

Hourly Observations for May 4, 2018

Temp ( °F °C ) Dew Point ( °F °C ) Humidity (%) Winds ( mph kmh ) Pressure ( in mb ) Visibility ( mi km ) Precip ( " mm )
12:53 am 00:53 Clear 52 11.1 36 2.2 55 55 SW 6 9 29.98 1015 10 16 0.00 0.00
1:53 am 01:53 Clear 51 10.6 36 2.2 56 56 SSW 8 13 29.97 1015 10 16 0.00 0.00
2:53 am 02:53 Clear 51 10.6 36 2.2 56 56 SSW 10 17 29.98 1015 10 16 0.00 0.00
3:53 am 03:53 Clear 51 10.6 36 2.2 56 56 SW 13 20 29.99 1016 10 16 0.00 0.00
4:53 am 04:53 Clear 50 10 36 2.2 59 59 SW 15 24 30.00 1016 10 16 0.00 0.00
5:53 am 05:53 Clear 50 10 35 1.7 57 57 WSW 9 15 30.00 1016 10 16 0.00 0.00
6:53 am 06:53 Sunny 52 11.1 36 2.2 55 55 SW 13 20 30.01 1016 10 16 0.00 0.00
7:53 am 07:53 Sunny 58 14.4 37 2.8 46 46 SW 16 26 30.03 1017 10 16 0.00 0.00
8:53 am 08:53 Sunny 62 16.7 38 3.3 41 41 SW 16 26 30.02 1017 10 16 0.00 0.00
9:53 am 09:53 Sunny 66 18.9 39 3.9 37 37 SW 17 28 30.02 1017 10 16 0.00 0.00
10:53 am 10:53 Sunny 70 21.1 39 3.9 32 32 SSW 20 31 30.01 1016 10 16 0.00 0.00
11:53 am 11:53 Mostly Sunny 74 23.3 39 3.9 28 28 undefined N/A 29.99 1016 10 16 0.00 0.00
12:53 pm 12:53 Mostly Cloudy 75 23.9 34 1.1 22 22 W 17 28 29.98 1015 10 16 0.00 0.00
1:53 pm 13:53 Mostly Sunny 79 26.1 36 2.2 21 21 W 21 33 29.97 1015 10 16 0.00 0.00
2:53 pm 14:53 Mostly Cloudy with Light Rain 74 23.3 36 2.2 25 25 WSW 12 19 29.98 1015 10 16 0.00 0.03
3:53 pm 15:53 Mostly Sunny 77 25 35 1.7 22 22 NW 14 22 29.96 1015 10 16 0.00 0.03
4:53 pm 16:53 Partly Cloudy 74 23.3 33 0.6 22 22 NW 20 31 29.97 1015 10 16 0.00 0.00
5:53 pm 17:53 Cloudy 73 22.8 34 1.1 24 24 WNW 15 24 29.98 1015 10 16 0.00 0.00
6:53 pm 18:53 Mostly Sunny 69 20.6 39 3.9 33 33 NW 12 19 29.99 1016 10 16 0.00 0.00
7:53 pm 19:53 Mostly Cloudy 67 19.4 39 3.9 36 36 WNW 5 7 29.98 1015 10 16 0.00 0.00
8:53 pm 20:53 Clear 58 14.4 41 5 53 53 S 7 11 30.00 1016 10 16 0.00 0.00
9:53 pm 21:53 Cloudy with Light Rain 58 14.4 44 6.7 60 60 E 5 7 30.00 1016 10 16 0.00 0.03
10:53 pm 22:53 Mostly Cloudy 57 13.9 46 7.8 67 67 SSE 8 13 30.00 1016 10 16 0.00 0.03
11:53 pm 23:53 Clear 54 12.2 41 5 62 62 S 8 13 30.00 1016 10 16 0.00 0.00

Powered by AerisWeather